sat.trackr.live / text

‹ back to catalog

TIGER-8

NORAD 59120 · 2024-043Y

PAYLOAD ACTIVE UNKNOWN

§ Identity

Operator
Country
RWA
Launch date
2024-03-04
Launch site
AFWTR
Launch vehicle
Mass (kg)
RCS (m²)

External: N2YO · Heavens-Above · Gunter

§ Orbital elements

Epoch: 2026-05-24T23:01:16.958784Z

Period
93.25 min
Inclination
97.5516°
Eccentricity
0.0006032
Mean motion
15.44211026 rev/d
Perigee alt
429.6 km
Apogee alt
437.8 km
Semi-major
6,811.8 km
B*
1.7839e-4
RAAN
292.6848°
Arg perigee
289.6811°
Mean anomaly
70.3786°
Rev number
12,420

§ Raw data

TIGER-81 59120U 24043Y   26144.95922406  .00008100  00000+0  17839-3 0  99932 59120  97.5516 292.6848 0006032 289.6811  70.3786 15.44211026124203

JSON: /api/v1/satellites/59120 · /tle

For live sub-satellite position, see the globe view (requires WebGL).

§ Visibility from observer

Set your observer location to see the next 7 days of passes ≥ 10°. The values pass through the URL so the page stays shareable.

No JS? Fill the form by hand. The geolocation button needs JavaScript.

§ Radio — SatNOGS DB

ModeDescriptionDownlinkUplink
FM S-band telemetry 2.241 GHz

1 transmitter · refreshed weekly from db.satnogs.org